User: anonymous   Login
Location: Chillicothe
(39.7950°N, 93.5520°W)
Time: 10:38:56
(UTC-05:00)
Language:

Vanguard 2 Rocket - Orbit

View from above orbital plane
View from above orbital plane
View from above satellite
View from above satellite

Ground track
Ground track

The orbit data is extracted from the following two-line orbital elements,

1    12U 59001B   19288.96639814  .00000149  00000-0  66362-4 0  9993
2    12  32.9063 129.8339 1666753 225.3333 119.8913 11.44309433494425
Epoch (UTC): 15 October 2019 23:11:36
Eccentricity: 0.1666753
inclination: 32.9063°
perigee height: 554 km
apogee height: 3327 km
right ascension of ascending node: 129.8339°
argument of perigee: 225.3333°
revolutions per day: 11.44309433
mean anomaly at epoch: 119.8913°
orbit number at epoch: 49442

The dashed part of the orbit path shows where the satellite is in the earth's shadow,  

DLR